Location: Burjasot
(39.5167°N, 0.4167°W)
Time: 22:57:39
(UTC+02:00)

ISS - Pass Details

Date: 22 May 2019
Orbit: 408 x 418 km, 51.6° (Epoch: 18 June)

Event Time Altitude Azimuth Distance (km) Brightness Sun altitude
Rises 01:01:31 0° 308° (NW) 2,361 0.8 -28.7°
Reaches altitude 10° 01:05:09 10° 349° (N) 1,500 0.0 -28.9°
Maximum altitude 01:05:59 11° 3° (N) 1,461 -0.2 -29.0°
Drops below altitude 10° 01:06:48 10° 18° (NNE) 1,501 -0.3 -29.0°
Enters shadow 01:08:47 - 45° (NE) 1,875 -0.1 -29.1°
